Volver al catálogo

OPS 4682 DEB

ActivoPO
NORAD 38370·DEBRIS·🇺🇸 United States

Lanzado Apr 3, 1965 desde Vandenberg Space Force Base

Loading…

Próximos Pases (próximas 24 horas)

TLE

EnvejeciendoSource: Space-Track

Época: Sep 7, 2026, 19:07 UTC

1 38370U 65027BX  26250.79666659  .00001531  00000-0  49896-2 0  9998
2 38370  90.2587  13.8955 0026486  59.3462 301.0267 13.00932090616548

Sigue OPS 4682 DEB en tiempo real con AllMySat

Download on the App Store